User: anonymous   Login
Location: Dos Palmas
(32.4468°N, 116.8732°W)
Time: 02:59:51
(UTC+00:00)
Language:

OAO 3 Rocket - Orbit

View from above orbital plane
View from above orbital plane
View from above satellite
View from above satellite

Ground track
Ground track

The orbit data is extracted from the following two-line orbital elements,

1 06155U 72065B   21270.52426092  .00000216  00000-0  37616-4 0  9995
2 06155  35.0046  50.3040 0036867  97.4054 263.0836 14.71716512601468
Epoch (UTC): 27 September 2021 12:34:56
Eccentricity: 0.0036867
inclination: 35.0046°
perigee height: 629 km
apogee height: 681 km
right ascension of ascending node: 50.3040°
argument of perigee: 97.4054°
revolutions per day: 14.71716512
mean anomaly at epoch: 263.0836°
orbit number at epoch: 60146

The dashed part of the orbit path shows where the satellite is in the earth's shadow,  

DLR